Sexton Summit, OR

3:00 PM PDT on May 26, 2017 (GMT -0700)
Sexton Summit

Weather History for KSXT - January, 2013

Change the Weather History Date:

Wednesday, January 23, 2013

  Actual Average Record
Temperature  
Mean Temperature 42 °F -  
Max Temperature 48 °F 39 °F 59 °F (2005)
Min Temperature 35 °F 31 °F 19 °F (1997)
Degree Days  
Heating Degree Days 24    
Moisture  
Dew Point 34 °F    
Average Humidity 85    
Maximum Humidity 100    
Minimum Humidity 21    
Precipitation  
Precipitation 1.00 in - - ()
Sea Level Pressure  
Sea Level Pressure 29.94 in    
Wind  
Wind Speed 12 mph (South)    
Max Wind Speed 18 mph    
Max Gust Speed 28 mph    
Visibility 2 miles    
Events Fog , Rain    
Averages and records for this station are not official NWS values.
T = Trace of Precipitation, MM = Missing Value Source: NWS Daily Summary

Daily Weather History Graph

Daily Weather History Graph

Search for Another Location

Airport or City:

Trip Planner

Search our weather history database for the weather conditions in past years. The results will help you decide how hot, cold, wet, or windy it might be!

Date:

Astronomy

Jan. 23, 2013 Rise Set
Actual Time 7:35 AM PST 5:15 PM PST
Civil Twilight 7:04 AM PST 5:46 PM PST
Nautical Twilight 6:30 AM PST 6:20 PM PST
Astronomical Twilight 5:57 AM PST 6:54 PM PST
Moon 2:29 PM PST (1/23) 4:52 AM PST (1/23)
Length of Visible Light 10h 41m
Length of Day
9h 40m
Waxing Gibbous, 90% of the Moon is Illuminated
Jan 23
Waxing Gibbous
Jan 26
Full
Feb 3
Last Quarter
Feb 9
New
Feb 17
First Quarter

Hourly Weather History & Observations

Time (PST) Temp. Windchill Dew Point Humidity Pressure Visibility Wind Dir Wind Speed Gust Speed Precip Events Conditions
12:56 AM 48.0 °F - 9.0 °F 21% 29.86 in 10.0 mi SSE 17.3 mph 21.9 mph N/A   Mostly Cloudy
1:56 AM 46.9 °F - 9.0 °F 21% 29.85 in 10.0 mi SE 15.0 mph 21.9 mph N/A   Partly Cloudy
2:56 AM 44.1 °F 37.4 °F 15.1 °F 31% 29.84 in 10.0 mi SE 13.8 mph 25.3 mph N/A   Overcast
3:56 AM 43.0 °F 35.7 °F 17.1 °F 35% 29.82 in 10.0 mi ESE 15.0 mph 23.0 mph N/A   Overcast
4:56 AM 43.0 °F 35.1 °F 16.0 °F 34% 29.81 in 10.0 mi SE 17.3 mph 24.2 mph N/A   Overcast
5:56 AM 43.0 °F 35.7 °F 17.1 °F 35% 29.83 in 10.0 mi SE 15.0 mph 25.3 mph N/A   Overcast
6:56 AM 43.0 °F 36.0 °F 19.0 °F 38% 29.82 in 10.0 mi ESE 13.8 mph 21.9 mph 0.00 in   Overcast
7:56 AM 39.0 °F 31.0 °F 25.0 °F 57% 29.81 in 10.0 mi ESE 13.8 mph 27.6 mph 0.00 in Rain Light Rain
8:56 AM 37.9 °F 28.9 °F 30.0 °F 73% 29.81 in 5.0 mi SE 16.1 mph 24.2 mph 0.01 in Rain Light Rain
9:25 AM 37.4 °F 27.5 °F 32.0 °F 81% 29.82 in 4.0 mi SE 18.4 mph 26.5 mph 0.02 in Rain Rain
9:56 AM 37.9 °F 29.6 °F 35.1 °F 89% 29.85 in 3.0 mi SE 13.8 mph - 0.07 in Rain Rain
10:22 AM 39.2 °F 30.8 °F 37.4 °F 93% 29.86 in 2.5 mi SSE 15.0 mph - 0.02 in Rain Rain
10:54 AM 39.2 °F 31.6 °F 37.4 °F 93% 29.87 in 1.8 mi SSE 12.7 mph - 0.09 in Rain Heavy Rain
10:56 AM 39.0 °F 30.6 °F 37.0 °F 93% 29.88 in 1.8 mi SSE 15.0 mph - 0.10 in Rain Heavy Rain
11:12 AM 39.2 °F 30.8 °F 37.4 °F 93% 29.88 in 1.2 mi SSE 15.0 mph - 0.01 in Rain Rain
11:34 AM 39.2 °F 31.6 °F 37.4 °F 93% 29.87 in 0.8 mi SSE 12.7 mph - 0.06 in Rain Rain
11:56 AM 39.0 °F 31.0 °F 37.9 °F 96% 29.86 in 0.2 mi SSE 13.8 mph - 0.08 in Fog , Rain Rain
12:35 PM 41.0 °F 33.5 °F 39.2 °F 93% 29.88 in 0.5 mi SSE 13.8 mph - 0.08 in Fog , Rain Rain
12:43 PM 41.0 °F 33.9 °F 39.2 °F 93% 29.87 in 0.2 mi SE 12.7 mph - 0.09 in Fog , Rain Rain
12:56 PM 39.9 °F 32.9 °F 39.9 °F 100% 29.87 in 0.2 mi SSE 11.5 mph - 0.14 in Fog , Rain Rain
1:34 PM 41.0 °F 33.9 °F 39.2 °F 93% 29.88 in 0.2 mi SSE 12.7 mph - 0.14 in Fog , Rain Rain
1:54 PM 41.0 °F 34.3 °F 39.2 °F 93% 29.89 in 0.2 mi South 11.5 mph - 0.22 in Fog , Rain Rain
1:56 PM 41.0 °F 34.7 °F 39.9 °F 96% 29.88 in 0.2 mi South 10.4 mph - 0.23 in Fog , Rain Rain
2:56 PM 41.0 °F 33.9 °F 39.9 °F 96% 29.89 in 0.2 mi South 12.7 mph 21.9 mph 0.12 in Fog , Rain Light Rain
3:10 PM 41.0 °F 33.5 °F 39.2 °F 93% 29.90 in 0.2 mi South 13.8 mph 23.0 mph 0.02 in Fog , Rain Rain
3:20 PM 41.0 °F 33.5 °F 39.2 °F 93% 29.90 in 0.2 mi South 13.8 mph 20.7 mph 0.03 in Fog , Rain Light Rain
3:31 PM 41.0 °F 33.9 °F 39.2 °F 93% 29.91 in 0.2 mi South 12.7 mph 19.6 mph 0.04 in Fog , Rain Light Rain
3:56 PM 41.0 °F 33.9 °F 39.9 °F 96% 29.93 in 0.2 mi South 12.7 mph 20.7 mph 0.08 in Fog , Rain Light Rain
4:56 PM 39.9 °F 37.8 °F 39.0 °F 97% 29.96 in 0.2 mi Variable 3.5 mph - 0.08 in Fog , Rain Rain
5:08 PM 39.2 °F - 39.2 °F 100% 29.96 in 0.2 mi Calm Calm - 0.01 in Fog , Rain Light Rain
5:24 PM 39.2 °F 35.9 °F 37.4 °F 93% 29.96 in 0.5 mi Variable 4.6 mph - 0.02 in Fog , Rain Light Rain
5:37 PM 37.4 °F 32.8 °F 37.4 °F 100% 29.98 in 0.2 mi NW 5.8 mph - 0.03 in Fog , Rain Light Rain
5:46 PM 37.4 °F 32.1 °F 37.4 °F 100% 29.98 in 0.2 mi NW 6.9 mph - 0.03 in Fog , Rain Light Rain
5:56 PM 37.0 °F 31.6 °F 36.0 °F 96% 30.01 in 0.2 mi NW 6.9 mph - 0.04 in Fog , Rain Light Rain
6:37 PM 37.4 °F 32.1 °F 35.6 °F 93% 30.01 in 0.2 mi NW 6.9 mph - 0.01 in Fog , Rain Light Rain
6:45 PM 37.4 °F 32.1 °F 35.6 °F 93% 30.01 in 0.5 mi NW 6.9 mph - 0.02 in Fog , Rain Light Rain
6:56 PM 36.0 °F 31.1 °F 36.0 °F 100% 30.03 in 0.5 mi NW 5.8 mph - 0.02 in Fog Fog
7:18 PM 37.4 °F 32.8 °F 37.4 °F 100% 30.02 in 1.0 mi WNW 5.8 mph - N/A   Overcast
7:36 PM 37.4 °F 34.9 °F 37.4 °F 100% 30.02 in 1.8 mi West 3.5 mph - N/A   Overcast
7:44 PM 37.4 °F 34.9 °F 37.4 °F 100% 30.02 in 0.8 mi WNW 3.5 mph - N/A   Overcast
7:52 PM 37.4 °F 33.8 °F 35.6 °F 93% 30.02 in 0.2 mi NW 4.6 mph - N/A Fog Fog
7:56 PM 36.0 °F 32.1 °F 36.0 °F 100% 30.05 in 0.2 mi NW 4.6 mph - N/A Fog Fog
8:05 PM 35.6 °F 30.7 °F 35.6 °F 100% 30.02 in 0.2 mi NW 5.8 mph - N/A Fog Fog
8:28 PM 37.4 °F 32.8 °F 35.6 °F 93% 30.04 in 0.2 mi NW 5.8 mph - N/A Fog Fog
8:56 PM 37.0 °F 34.5 °F 36.0 °F 96% 30.08 in 0.2 mi NW 3.5 mph - N/A Fog Fog
9:29 PM 37.4 °F - 37.4 °F 100% 30.06 in 0.2 mi Calm Calm - N/A Fog Fog
9:47 PM 37.4 °F - 35.6 °F 93% 30.06 in 0.2 mi Calm Calm - N/A Fog Fog
9:56 PM 37.0 °F 34.5 °F 36.0 °F 96% 30.10 in 0.2 mi NW 3.5 mph - N/A Fog Fog
10:56 PM 37.9 °F - 37.0 °F 97% 30.10 in 0.2 mi Calm Calm - 0.01 in Fog Fog
11:18 PM 37.4 °F - 37.4 °F 100% 30.08 in 0.2 mi Calm Calm - 0.01 in Fog Fog
11:56 PM 37.9 °F 35.5 °F 37.0 °F 97% 30.11 in 0.2 mi ESE 3.5 mph - 0.02 in Fog Fog